Weather History for KLCH - November, 2011

Change the Weather History Date:

Wednesday, November 2, 2011

  Actual Average Record
Temperature  
Mean Temperature 68 °F 65 °F  
Max Temperature 84 °F 76 °F 90 °F (1915)
Min Temperature 51 °F 54 °F 33 °F (1966)
Degree Days  
Heating Degree Days 0 3  
Month to date heating degree days 0 6  
Since 1 July heating degree days 55 42  
Cooling Degree Days 3 3  
Month to date cooling degree days 3 6  
Year to date cooling degree days 3160 2739  
Growing Degree Days 17 (Base 50)    
Moisture  
Dew Point 60 °F    
Average Humidity 72    
Maximum Humidity 96    
Minimum Humidity 47    
Precipitation  
Precipitation 0.00 in 0.15 in 2.77 in (1995)
Month to date precipitation 0.00 0.31  
Year to date precipitation 31.55 48.69  
Snow  
Snow 0.00 in 0.00 in 0.00 in ()
Month to date snowfall 0.0 0.0  
Since 1 July snowfall 0.0 0.0  
Since 1 September snowfall 0.0 0.0  
Snow Depth 0.00 in    
Sea Level Pressure  
Sea Level Pressure 30.12 in    
Wind  
Wind Speed 11 mph (SE)    
Max Wind Speed 22 mph    
Max Gust Speed 26 mph    
Visibility 8 miles    
Events      
T = Trace of Precipitation, MM = Missing Value Source: NWS Daily Summary

Daily Weather History Graph

Daily Weather History Graph

Search for Another Location

Airport or City:

Trip Planner

Search our weather history database for the weather conditions in past years. The results will help you decide how hot, cold, wet, or windy it might be!

Date:

Astronomy

Nov. 02, 2011 Rise Set
Actual Time 7:27 AM CDT 6:24 PM CDT
Civil Twilight 7:02 AM CDT 6:49 PM CDT
Nautical Twilight 6:34 AM CDT 7:18 PM CDT
Astronomical Twilight 6:06 AM CDT 7:46 PM CDT
Moon 1:48 PM CDT (11/2) 12:11 AM CDT (11/2)
Length of Visible Light 11h 47m
Length of Day
10h 57m
Waxing Crescent, 50% of the Moon is Illuminated
Nov 2
Waxing Crescent
Nov 10
Full
Nov 18
Last Quarter
Nov 25
New
Dec 2
First Quarter

Hourly Weather History & Observations

Time (CDT) Temp. Heat Index Dew Point Humidity Pressure Visibility Wind Dir Wind Speed Gust Speed Precip Events Conditions
12:53 AM 53.1 °F - 51.1 °F 93% 30.15 in 7.0 mi East 4.6 mph - N/A   Clear
1:53 AM 52.0 °F - 50.0 °F 93% 30.14 in 8.0 mi Calm Calm - N/A   Clear
2:53 AM 53.1 °F - 51.1 °F 93% 30.14 in 7.0 mi ENE 3.5 mph - N/A   Clear
3:53 AM 54.0 °F - 52.0 °F 93% 30.13 in 7.0 mi ENE 3.5 mph - N/A   Clear
4:53 AM 52.0 °F - 50.0 °F 93% 30.13 in 6.0 mi ENE 5.8 mph - N/A   Clear
5:53 AM 53.1 °F - 51.1 °F 93% 30.13 in 6.0 mi ENE 4.6 mph - N/A   Clear
6:53 AM 54.0 °F - 52.0 °F 93% 30.14 in 7.0 mi East 3.5 mph - N/A   Clear
7:53 AM 55.4 °F - 53.6 °F 94% 30.12 in 6.0 mi East 5.8 mph - N/A   Clear
8:53 AM 62.1 °F - 57.9 °F 86% 30.16 in 9.0 mi ESE 10.4 mph - N/A   Partly Cloudy
9:39 AM 66.2 °F - 60.8 °F 83% 30.14 in 1.5 mi ESE 15.0 mph - N/A   Haze
9:53 AM 69.1 °F - 61.0 °F 75% 30.16 in 10.0 mi ESE 15.0 mph - N/A   Clear
10:05 AM 69.8 °F - 60.8 °F 73% 30.14 in 1.8 mi SE 13.8 mph - N/A   Haze
10:12 AM 71.6 °F - 60.8 °F 69% 30.14 in 10.0 mi ESE 15.0 mph - N/A   Clear
10:53 AM 73.9 °F - 61.0 °F 64% 30.16 in 10.0 mi SE 18.4 mph - N/A   Mostly Cloudy
11:53 AM 78.1 °F - 63.0 °F 60% 30.14 in 10.0 mi SE 18.4 mph - N/A   Mostly Cloudy
12:53 PM 80.1 °F 81.2 °F 62.1 °F 54% 30.12 in 10.0 mi SSE 12.7 mph 23.0 mph N/A   Overcast
1:53 PM 82.0 °F 82.4 °F 60.1 °F 47% 30.09 in 10.0 mi South 15.0 mph 23.0 mph N/A   Overcast
2:53 PM 82.0 °F 83.0 °F 62.1 °F 51% 30.09 in 10.0 mi South 13.8 mph 19.6 mph N/A   Partly Cloudy
3:53 PM 80.1 °F 81.7 °F 64.0 °F 58% 30.08 in 10.0 mi SSE 23.0 mph 26.5 mph N/A   Partly Cloudy
4:53 PM 78.1 °F - 64.0 °F 62% 30.08 in 10.0 mi SSE 18.4 mph - N/A   Overcast
5:06 PM 77.0 °F - 64.4 °F 65% 30.06 in 10.0 mi SSE 20.7 mph 26.5 mph N/A   Overcast
5:53 PM 75.9 °F - 63.0 °F 64% 30.09 in 10.0 mi SSE 18.4 mph 23.0 mph N/A   Overcast
6:17 PM 75.2 °F - 62.6 °F 65% 30.07 in 10.0 mi SSE 12.7 mph 21.9 mph N/A   Overcast
6:53 PM 73.0 °F - 63.0 °F 71% 30.09 in 10.0 mi SE 13.8 mph - N/A   Mostly Cloudy
7:53 PM 69.1 °F - 63.0 °F 81% 30.09 in 10.0 mi SE 8.1 mph - N/A   Partly Cloudy
8:53 PM 66.9 °F - 62.1 °F 84% 30.10 in 10.0 mi SE 5.8 mph - N/A   Scattered Clouds
9:53 PM 69.1 °F - 64.0 °F 84% 30.11 in 10.0 mi SSE 6.9 mph - N/A   Overcast
10:53 PM 68.0 °F - 64.9 °F 90% 30.11 in 10.0 mi SSE 8.1 mph - N/A   Mostly Cloudy
11:46 PM 69.8 °F - 66.2 °F 88% 30.09 in 10.0 mi SSE 6.9 mph - 0.00 in   Overcast
11:53 PM 69.1 °F - 66.0 °F 90% 30.12 in 10.0 mi SSE 5.8 mph - 0.00 in   Overcast